When you browse on this site, cookies collect data to enhance your experience and personalize the content and advertising you see.
Visit our Privacy Policy to learn more. By continuing to use the site, you agree to this use of cookies and data.
  • Em Portugal
  • Lista de países
  • Para 7 dias
  • Temperatura da água
  • Mapas de satélite
  • Mapa do tempo
  • Widgets de tempo
  • user-avatar
    Iniciar Sessão

    Previsão horária em Dzerzhinsk

    Hoje, 27 Maio, Segunda-feira

    Tempo Temperatura Precipitação Vento Pressão Humidade
    00:00 +16°C° 0.1 mm 3 m/s 743 mmHg 90%
    01:00 +16°C° 0 mm 3 m/s 744 mmHg 91%
    02:00 +16°C° 0 mm 3 m/s 744 mmHg 91%
    03:00 +15°C° 0 mm 2 m/s 744 mmHg 92%
    04:00 +16°C° 0 mm 2 m/s 744 mmHg 91%
    05:00 +16°C° 0 mm 2 m/s 745 mmHg 90%
    06:00 +16°C° 0 mm 2 m/s 746 mmHg 89%
    07:00 +18°C° 0 mm 2 m/s 746 mmHg 83%
    08:00 +19°C° 0 mm 3 m/s 746 mmHg 76%
    09:00 +21°C° 0 mm 3 m/s 747 mmHg 70%
    10:00 +22°C° 0 mm 3 m/s 747 mmHg 65%
    11:00 +23°C° 0 mm 4 m/s 747 mmHg 59%
    12:00 +25°C° 0 mm 4 m/s 747 mmHg 54%
    13:00 +25°C° 0 mm 4 m/s 747 mmHg 53%
    14:00 +25°C° 0 mm 4 m/s 748 mmHg 52%
    15:00 +26°C° 0 mm 4 m/s 748 mmHg 51%
    16:00 +25°C° 0 mm 4 m/s 748 mmHg 54%
    17:00 +25°C° 0 mm 3 m/s 748 mmHg 56%
    18:00 +25°C° 0 mm 3 m/s 748 mmHg 58%
    19:00 +23°C° 0 mm 2 m/s 748 mmHg 62%
    20:00 +22°C° 0 mm 1 m/s 748 mmHg 66%
    21:00 +20°C° 0 mm 1 m/s 749 mmHg 70%
    22:00 +19°C° 0 mm 1 m/s 749 mmHg 72%
    23:00 +17°C° 0 mm 0 m/s 749 mmHg 74%

    Amanhã, 28 Maio, Terça-feira

    Tempo Temperatura Precipitação Vento Pressão Humidade
    00:00 +16°C° 0 mm 0 m/s 749 mmHg 75%
    01:00 +16°C° 0 mm 0 m/s 749 mmHg 76%
    02:00 +16°C° 0 mm 0 m/s 749 mmHg 76%
    03:00 +18°C° 0 mm 1 m/s 749 mmHg 76%
    04:00 +18°C° 0 mm 1 m/s 750 mmHg 76%
    05:00 +19°C° 0 mm 1 m/s 750 mmHg 76%
    06:00 +19°C° 0 mm 1 m/s 750 mmHg 76%
    07:00 +21°C° 0 mm 1 m/s 750 mmHg 70%
    08:00 +23°C° 0 mm 1 m/s 750 mmHg 64%
    09:00 +24°C° 0 mm 1 m/s 750 mmHg 58%
    10:00 +25°C° 0 mm 1 m/s 750 mmHg 54%
    11:00 +27°C° 0 mm 1 m/s 751 mmHg 51%
    12:00 +26°C° 0 mm 0 m/s 751 mmHg 47%
    13:00 +26°C° 0 mm 0 m/s 750 mmHg 46%
    14:00 +27°C° 0 mm 0 m/s 750 mmHg 44%
    15:00 +27°C° 0 mm 0 m/s 750 mmHg 42%
    16:00 +29°C° 0 mm 1 m/s 750 mmHg 45%
    17:00 +28°C° 0 mm 1 m/s 750 mmHg 48%
    18:00 +28°C° 0 mm 1 m/s 749 mmHg 51%
    19:00 +26°C° 0 mm 2 m/s 749 mmHg 54%
    20:00 +24°C° 0 mm 2 m/s 749 mmHg 57%
    21:00 +23°C° 0 mm 2 m/s 749 mmHg 60%
    22:00 +21°C° 0 mm 2 m/s 750 mmHg 64%
    23:00 +20°C° 0 mm 2 m/s 750 mmHg 67%

    Depois de amanhã, 29 Maio, Quarta-feira

    Tempo Temperatura Precipitação Vento Pressão Humidade
    00:00 +20°C° 0 mm 2 m/s 750 mmHg 71%
    01:00 +20°C° 0 mm 1 m/s 750 mmHg 72%
    02:00 +20°C° 0 mm 1 m/s 750 mmHg 74%
    03:00 +19°C° 0 mm 1 m/s 750 mmHg 76%
    04:00 +19°C° 0 mm 1 m/s 750 mmHg 76%
    05:00 +19°C° 0 mm 2 m/s 750 mmHg 76%
    06:00 +19°C° 0 mm 2 m/s 750 mmHg 76%
    07:00 +21°C° 0 mm 3 m/s 750 mmHg 70%
    08:00 +22°C° 0 mm 3 m/s 750 mmHg 65%
    09:00 +25°C° 0 mm 4 m/s 750 mmHg 59%
    10:00 +26°C° 0 mm 4 m/s 750 mmHg 57%
    11:00 +27°C° 0 mm 5 m/s 750 mmHg 55%
    12:00 +28°C° 0 mm 5 m/s 750 mmHg 54%
    13:00 +28°C° 0 mm 5 m/s 750 mmHg 53%
    14:00 +29°C° 0 mm 5 m/s 749 mmHg 53%
    15:00 +29°C° 0 mm 4 m/s 749 mmHg 52%
    16:00 +29°C° 0 mm 4 m/s 749 mmHg 55%
    17:00 +28°C° 0 mm 4 m/s 749 mmHg 58%
    18:00 +28°C° 0 mm 3 m/s 749 mmHg 60%
    19:00 +26°C° 0 mm 3 m/s 749 mmHg 64%
    20:00 +25°C° 0 mm 3 m/s 749 mmHg 67%
    21:00 +22°C° 0 mm 3 m/s 749 mmHg 71%
    22:00 +22°C° 0 mm 3 m/s 749 mmHg 72%
    23:00 +21°C° 0 mm 3 m/s 749 mmHg 74%

    30 Maio, Quinta-feira

    Tempo Temperatura Precipitação Vento Pressão Humidade
    00:00 +20°C° 0 mm 3 m/s 749 mmHg 75%
    01:00 +20°C° 0 mm 3 m/s 749 mmHg 75%
    02:00 +20°C° 0 mm 3 m/s 749 mmHg 75%
    03:00 +19°C° 0 mm 3 m/s 749 mmHg 75%
    04:00 +19°C° 0 mm 3 m/s 749 mmHg 75%
    05:00 +19°C° 0 mm 3 m/s 749 mmHg 74%
    06:00 +19°C° 0 mm 3 m/s 749 mmHg 74%
    07:00 +21°C° 0 mm 3 m/s 749 mmHg 68%
    08:00 +23°C° 0 mm 4 m/s 749 mmHg 63%
    09:00 +26°C° 0 mm 5 m/s 749 mmHg 58%
    10:00 +27°C° 0 mm 5 m/s 749 mmHg 54%
    11:00 +28°C° 0 mm 5 m/s 749 mmHg 50%
    12:00 +29°C° 0 mm 5 m/s 749 mmHg 47%
    13:00 +30°C° 0 mm 5 m/s 749 mmHg 46%
    14:00 +30°C° 0 mm 4 m/s 749 mmHg 45%
    15:00 +30°C° 0 mm 4 m/s 749 mmHg 45%
    16:00 +30°C° 0 mm 4 m/s 748 mmHg 48%
    17:00 +30°C° 0 mm 3 m/s 748 mmHg 52%
    18:00 +29°C° 0 mm 3 m/s 748 mmHg 56%
    19:00 +28°C° 0 mm 3 m/s 748 mmHg 58%
    20:00 +26°C° 0 mm 3 m/s 748 mmHg 61%
    21:00 +24°C° 0 mm 3 m/s 748 mmHg 64%
    22:00 +23°C° 0 mm 2 m/s 748 mmHg 66%
    23:00 +23°C° 0 mm 2 m/s 748 mmHg 68%

    31 Maio, Sexta-feira

    Tempo Temperatura Precipitação Vento Pressão Humidade
    00:00 +21°C° 0 mm 2 m/s 748 mmHg 70%
    01:00 +20°C° 0 mm 2 m/s 748 mmHg 71%
    02:00 +20°C° 0 mm 2 m/s 748 mmHg 71%
    03:00 +20°C° 0 mm 2 m/s 748 mmHg 71%
    04:00 +20°C° 0 mm 3 m/s 748 mmHg 72%
    05:00 +20°C° 0 mm 3 m/s 748 mmHg 73%
    06:00 +20°C° 0 mm 3 m/s 748 mmHg 74%
    07:00 +22°C° 0 mm 3 m/s 748 mmHg 68%
    08:00 +25°C° 0 mm 4 m/s 748 mmHg 62%
    09:00 +27°C° 0 mm 4 m/s 748 mmHg 57%
    10:00 +28°C° 0 mm 4 m/s 747 mmHg 52%
    11:00 +29°C° 0 mm 4 m/s 747 mmHg 47%
    12:00 +30°C° 0 mm 4 m/s 747 mmHg 43%
    13:00 +32°C° 0 mm 4 m/s 747 mmHg 43%
    14:00 +32°C° 0 mm 4 m/s 747 mmHg 43%
    15:00 +32°C° 0 mm 4 m/s 746 mmHg 43%
    16:00 +30°C° 0 mm 4 m/s 746 mmHg 48%
    17:00 +29°C° 0 mm 4 m/s 746 mmHg 52%
    18:00 +28°C° 0 mm 3 m/s 746 mmHg 56%
    19:00 +27°C° 0 mm 3 m/s 746 mmHg 58%
    20:00 +26°C° 0 mm 3 m/s 746 mmHg 60%
    21:00 +25°C° 0 mm 3 m/s 746 mmHg 62%
    22:00 +24°C° 0 mm 3 m/s 746 mmHg 63%
    23:00 +24°C° 0 mm 3 m/s 745 mmHg 65%

    1 Junho, Sábado

    Tempo Temperatura Precipitação Vento Pressão Humidade
    00:00 +22°C° 0 mm 3 m/s 745 mmHg 66%
    01:00 +22°C° 0 mm 3 m/s 745 mmHg 67%
    02:00 +21°C° 0 mm 3 m/s 745 mmHg 68%
    03:00 +21°C° 0 mm 3 m/s 744 mmHg 69%
    04:00 +21°C° 0 mm 3 m/s 744 mmHg 70%
    05:00 +21°C° 0 mm 3 m/s 744 mmHg 72%
    06:00 +21°C° 0 mm 3 m/s 744 mmHg 73%
    07:00 +23°C° 0 mm 4 m/s 744 mmHg 66%
    08:00 +26°C° 0 mm 4 m/s 745 mmHg 60%
    09:00 +28°C° 0 mm 4 m/s 745 mmHg 53%
    10:00 +30°C° 0 mm 5 m/s 744 mmHg 48%
    11:00 +32°C° 0 mm 6 m/s 744 mmHg 44%
    12:00 +33°C° 0 mm 7 m/s 744 mmHg 39%
    13:00 +33°C° 0 mm 7 m/s 744 mmHg 39%
    14:00 +33°C° 0 mm 7 m/s 744 mmHg 38%
    15:00 +33°C° 0 mm 7 m/s 743 mmHg 38%
    16:00 +33°C° 0 mm 6 m/s 743 mmHg 42%
    17:00 +32°C° 0 mm 5 m/s 743 mmHg 47%
    18:00 +32°C° 0 mm 4 m/s 743 mmHg 51%
    19:00 +29°C° 0 mm 3 m/s 743 mmHg 52%
    20:00 +27°C° 0 mm 3 m/s 743 mmHg 53%
    21:00 +25°C° 0 mm 3 m/s 743 mmHg 54%
    22:00 +25°C° 0 mm 2 m/s 743 mmHg 57%
    23:00 +24°C° 0 mm 2 m/s 743 mmHg 59%
    Mostrar mais